Location: North Evanston
(42.0634°N, 87.6976°W)
Time: 14:25:26
(UTC+00:00)

Vanguard 2 - Pass Details

Date: 11 May 2026
Orbit: 553 x 2894 km, 32.9° (Epoch: 8 June)

Event Time Altitude Azimuth Distance (km) Brightness Sun altitude
Rises 05:21:29 0° 182° (S) 6,392 - -29.8°
Reaches altitude 10° 05:29:01 10° 161° (SSE) 5,631 - -29.9°
Maximum altitude 05:36:25 14° 135° (SE) 5,343 - -30.0°
Exits shadow 05:38:40 14° 127° (SE) 5,364 11.4 -30.0°
Drops below altitude 10° 05:43:42 10° 110° (ESE) 5,600 11.7 -30.0°
Sets 05:50:59 0° 89° (E) 6,342 12.2 -30.0°
